Time,TemperatureF,DewpointF,PressureIn,WindDirection,WindDirectionDegrees,WindSpeedMPH,WindSpeedGustMPH,Humidity,HourlyPrecipIn,Conditions,Clouds,dailyrainin,SoftwareType,DateUTC
2013-04-22 00:00:00,48.4,35.6,30.32,ENE,60,0.0,0.0,61,0.00,,---,0.00,VWS V14.01,2013-04-22 04:00:00,
2013-04-22 00:01:00,48.4,35.6,30.32,ENE,60,0.0,0.0,61,0.00,,---,0.00,VWS V14.01,2013-04-22 04:01:00,
2013-04-22 00:06:00,48.4,35.6,30.32,ENE,68,0.0,0.0,61,0.00,,---,0.00,VWS V14.01,2013-04-22 04:06:00,
2013-04-22 00:11:00,48.2,35.8,30.32,ENE,68,0.0,0.0,62,0.00,,---,0.00,VWS V14.01,2013-04-22 04:11:00,
2013-04-22 00:16:00,48.4,35.6,30.32,ENE,63,0.0,0.0,61,0.00,,---,0.00,VWS V14.01,2013-04-22 04:16:00,
2013-04-22 00:21:00,48.2,35.4,30.32,ENE,74,0.0,0.0,61,0.00,,---,0.00,VWS V14.01,2013-04-22 04:21:00,
2013-04-22 00:26:00,48.2,35.4,30.32,ENE,68,0.0,0.0,61,0.00,,---,0.00,VWS V14.01,2013-04-22 04:26:00,
2013-04-22 00:31:00,48.2,35.4,30.32,ENE,67,0.0,0.0,61,0.00,,---,0.00,VWS V14.01,2013-04-22 04:31:00,
2013-04-22 00:36:00,48.2,35.4,30.32,ENE,67,0.0,0.0,61,0.00,,---,0.00,VWS V14.01,2013-04-22 04:36:00,
2013-04-22 00:41:00,48.0,35.6,30.32,ENE,68,0.0,0.0,62,0.00,,---,0.00,VWS V14.01,2013-04-22 04:41:00,
2013-04-22 00:46:00,48.0,35.6,30.32,ENE,68,0.0,0.0,62,0.00,,---,0.00,VWS V14.01,2013-04-22 04:46:00,
2013-04-22 00:51:00,47.8,35.5,30.32,ENE,68,0.0,0.0,62,0.00,,---,0.00,VWS V14.01,2013-04-22 04:51:00,
2013-04-22 00:56:00,47.8,35.9,30.32,ENE,74,0.0,0.0,63,0.00,,---,0.00,VWS V14.01,2013-04-22 04:56:00,
2013-04-22 01:01:00,47.7,35.7,30.32,East,81,0.0,0.0,63,0.00,,---,0.00,VWS V14.01,2013-04-22 05:01:00,
2013-04-22 01:06:00,47.7,35.7,30.32,ENE,62,0.0,0.0,63,0.00,,---,0.00,VWS V14.01,2013-04-22 05:06:00,
2013-04-22 01:11:00,47.5,35.5,30.32,ENE,76,0.0,0.0,63,0.00,,---,0.00,VWS V14.01,2013-04-22 05:11:00,
2013-04-22 01:16:00,47.5,35.5,30.32,ENE,76,0.0,0.0,63,0.00,,---,0.00,VWS V14.01,2013-04-22 05:16:00,
2013-04-22 01:21:00,47.3,35.4,30.32,East,86,0.0,0.0,63,0.00,,---,0.00,VWS V14.01,2013-04-22 05:21:00,
2013-04-22 01:26:00,47.3,35.4,30.32,ENE,78,0.0,0.0,63,0.00,,---,0.00,VWS V14.01,2013-04-22 05:26:00,
2013-04-22 01:31:00,47.3,35.8,30.32,ENE,70,0.0,0.0,64,0.00,,---,0.00,VWS V14.01,2013-04-22 05:31:00,
2013-04-22 01:36:00,47.3,35.8,30.32,ENE,77,0.0,0.0,64,0.00,,---,0.00,VWS V14.01,2013-04-22 05:36:00,
2013-04-22 01:41:00,47.1,35.6,30.32,ENE,70,0.0,0.0,64,0.00,,---,0.00,VWS V14.01,2013-04-22 05:41:00,
2013-04-22 01:46:00,47.1,35.6,30.32,ENE,64,0.0,0.0,64,0.00,,---,0.00,VWS V14.01,2013-04-22 05:46:00,
2013-04-22 01:51:00,46.9,35.8,30.32,East,81,0.0,0.0,65,0.00,,---,0.00,VWS V14.01,2013-04-22 05:51:00,
2013-04-22 01:56:00,46.8,35.6,30.32,East,90,0.0,0.0,65,0.00,,---,0.00,VWS V14.01,2013-04-22 05:56:00,
2013-04-22 02:01:00,46.8,35.6,30.32,East,81,0.0,0.0,65,0.00,,---,0.00,VWS V14.01,2013-04-22 06:01:00,
2013-04-22 02:06:00,46.6,35.5,30.32,ENE,65,0.0,0.0,65,0.00,,---,0.00,VWS V14.01,2013-04-22 06:06:00,
2013-04-22 02:11:00,46.4,35.3,30.32,East,85,0.0,0.0,65,0.00,,---,0.00,VWS V14.01,2013-04-22 06:11:00,
2013-04-22 02:16:00,46.2,35.5,30.32,ENE,68,0.0,0.0,66,0.00,,---,0.00,VWS V14.01,2013-04-22 06:16:00,
2013-04-22 02:21:00,46.0,35.7,30.32,ENE,77,0.0,0.0,67,0.00,,---,0.00,VWS V14.01,2013-04-22 06:21:00,
2013-04-22 02:26:00,45.7,35.4,30.32,ENE,70,0.0,0.0,67,0.00,,---,0.00,VWS V14.01,2013-04-22 06:26:00,
2013-04-22 02:31:00,45.5,35.6,30.32,ENE,68,0.0,0.0,68,0.00,,---,0.00,VWS V14.01,2013-04-22 06:31:00,
2013-04-22 02:36:00,45.3,35.4,30.32,ENE,77,0.0,0.0,68,0.00,,---,0.00,VWS V14.01,2013-04-22 06:36:00,
2013-04-22 02:41:00,45.1,35.6,30.32,ENE,57,0.0,0.0,69,0.00,,---,0.00,VWS V14.01,2013-04-22 06:41:00,
2013-04-22 02:46:00,44.8,35.2,30.32,ENE,63,0.0,0.0,69,0.00,,---,0.00,VWS V14.01,2013-04-22 06:46:00,
2013-04-22 02:51:00,44.6,35.1,30.32,NE,55,0.0,0.0,69,0.00,,---,0.00,VWS V14.01,2013-04-22 06:51:00,
2013-04-22 02:56:00,44.2,35.1,30.32,SE,138,0.0,0.0,70,0.00,,---,0.00,VWS V14.01,2013-04-22 06:56:00,
2013-04-22 03:01:00,44.1,35.3,30.29,ENE,77,0.0,0.0,71,0.00,,---,0.00,VWS V14.01,2013-04-22 07:01:00,
2013-04-22 03:06:00,43.9,35.1,30.29,ENE,65,0.0,0.0,71,0.00,,---,0.00,VWS V14.01,2013-04-22 07:06:00,
2013-04-22 03:11:00,43.7,35.3,30.29,ENE,61,0.0,0.0,72,0.00,,---,0.00,VWS V14.01,2013-04-22 07:11:00,
2013-04-22 03:16:00,43.5,35.1,30.29,East,93,0.0,0.0,72,0.00,,---,0.00,VWS V14.01,2013-04-22 07:16:00,
2013-04-22 03:21:00,43.3,35.3,30.29,NE,45,0.0,0.0,73,0.00,,---,0.00,VWS V14.01,2013-04-22 07:21:00,
2013-04-22 03:26:00,43.2,35.1,30.29,ENE,60,0.0,0.0,73,0.00,,---,0.00,VWS V14.01,2013-04-22 07:26:00,
2013-04-22 03:31:00,43.0,34.9,30.29,ENE,66,0.0,0.0,73,0.00,,---,0.00,VWS V14.01,2013-04-22 07:31:00,
2013-04-22 03:36:00,42.8,35.1,30.29,ENE,70,0.0,0.0,74,0.00,,---,0.00,VWS V14.01,2013-04-22 07:36:00,
2013-04-22 03:41:00,42.6,34.9,30.29,ESE,106,0.0,0.0,74,0.00,,---,0.00,VWS V14.01,2013-04-22 07:41:00,
2013-04-22 03:46:00,42.4,34.8,30.29,NE,49,0.0,0.0,74,0.00,,---,0.00,VWS V14.01,2013-04-22 07:46:00,
2013-04-22 03:51:00,42.3,34.6,30.29,ENE,64,0.0,0.0,74,0.00,,---,0.00,VWS V14.01,2013-04-22 07:51:00,
2013-04-22 03:56:00,42.3,34.6,30.29,NE,54,0.0,0.0,74,0.00,,---,0.00,VWS V14.01,2013-04-22 07:56:00,
2013-04-22 04:01:00,42.1,34.4,30.29,East,99,0.0,0.0,74,0.00,,---,0.00,VWS V14.01,2013-04-22 08:01:00,
2013-04-22 04:06:00,42.1,34.4,30.29,ENE,61,0.0,0.0,74,0.00,,---,0.00,VWS V14.01,2013-04-22 08:06:00,
2013-04-22 04:11:00,41.9,34.2,30.29,East,100,0.0,0.0,74,0.00,,---,0.00,VWS V14.01,2013-04-22 08:11:00,
2013-04-22 04:16:00,41.7,34.1,30.29,ENE,70,0.0,0.0,74,0.00,,---,0.00,VWS V14.01,2013-04-22 08:16:00,
2013-04-22 04:21:00,41.7,34.1,30.29,ENE,65,0.0,0.0,74,0.00,,---,0.00,VWS V14.01,2013-04-22 08:21:00,
2013-04-22 04:26:00,41.5,33.9,30.29,ENE,76,0.0,0.0,74,0.00,,---,0.00,VWS V14.01,2013-04-22 08:26:00,
2013-04-22 04:31:00,41.5,33.9,30.29,NE,42,0.0,0.0,74,0.00,,---,0.00,VWS V14.01,2013-04-22 08:31:00,
2013-04-22 04:36:00,41.5,33.5,30.29,SE,145,0.0,0.0,73,0.00,,---,0.00,VWS V14.01,2013-04-22 08:36:00,
2013-04-22 04:41:00,41.4,33.4,30.29,ESE,121,0.0,0.0,73,0.00,,---,0.00,VWS V14.01,2013-04-22 08:41:00,
2013-04-22 04:46:00,41.2,33.2,30.32,East,98,0.0,0.0,73,0.00,,---,0.00,VWS V14.01,2013-04-22 08:46:00,
2013-04-22 04:51:00,41.2,33.2,30.32,ENE,62,0.0,0.0,73,0.00,,---,0.00,VWS V14.01,2013-04-22 08:51:00,
2013-04-22 04:56:00,41.2,33.2,30.32,ESE,108,0.0,0.0,73,0.00,,---,0.00,VWS V14.01,2013-04-22 08:56:00,
2013-04-22 05:01:00,41.0,33.0,30.29,East,95,0.0,0.0,73,0.00,,---,0.00,VWS V14.01,2013-04-22 09:01:00,
2013-04-22 05:06:00,41.0,33.4,30.29,ENE,66,0.0,0.0,74,0.00,,---,0.00,VWS V14.01,2013-04-22 09:06:00,
2013-04-22 05:11:00,40.8,33.2,30.29,NNE,19,0.0,0.0,74,0.00,,---,0.00,VWS V14.01,2013-04-22 09:11:00,
2013-04-22 05:16:00,40.8,33.5,30.29,East,85,0.0,0.0,75,0.00,,---,0.00,VWS V14.01,2013-04-22 09:16:00,
2013-04-22 05:21:00,40.6,33.3,30.29,ENE,75,0.0,0.0,75,0.00,,---,0.00,VWS V14.01,2013-04-22 09:21:00,
2013-04-22 05:26:00,40.6,33.7,30.29,NE,53,0.0,0.0,76,0.00,,---,0.00,VWS V14.01,2013-04-22 09:26:00,
2013-04-22 05:31:00,40.6,33.7,30.29,NNW,331,0.0,0.0,76,0.00,,---,0.00,VWS V14.01,2013-04-22 09:31:00,
2013-04-22 05:36:00,40.5,33.5,30.29,East,83,0.0,0.0,76,0.00,,---,0.00,VWS V14.01,2013-04-22 09:36:00,
2013-04-22 05:41:00,40.5,33.5,30.29,ENE,75,0.0,0.0,76,0.00,,---,0.00,VWS V14.01,2013-04-22 09:41:00,
2013-04-22 05:46:00,40.5,33.5,30.32,NE,52,0.0,0.0,76,0.00,,---,0.00,VWS V14.01,2013-04-22 09:46:00,
2013-04-22 05:51:00,40.3,33.3,30.32,ENE,68,0.0,0.0,76,0.00,,---,0.00,VWS V14.01,2013-04-22 09:51:00,
2013-04-22 05:56:00,40.3,33.3,30.32,ENE,77,0.0,0.0,76,0.00,,---,0.00,VWS V14.01,2013-04-22 09:56:00,
2013-04-22 06:01:00,40.1,33.2,30.32,East,87,0.0,0.0,76,0.00,,---,0.00,VWS V14.01,2013-04-22 10:01:00,
2013-04-22 06:06:00,39.9,33.0,30.32,ENE,57,0.0,0.0,76,0.00,,---,0.00,VWS V14.01,2013-04-22 10:06:00,
2013-04-22 06:11:00,39.9,33.3,30.32,East,80,0.0,0.0,77,0.00,,---,0.00,VWS V14.01,2013-04-22 10:11:00,
2013-04-22 06:16:00,39.7,33.1,30.32,ENE,64,0.0,0.0,77,0.00,,---,0.00,VWS V14.01,2013-04-22 10:16:00,
2013-04-22 06:21:00,39.6,33.0,30.32,East,88,0.0,0.0,77,0.00,,---,0.00,VWS V14.01,2013-04-22 10:21:00,
2013-04-22 06:26:00,39.6,33.0,30.32,NE,43,0.0,0.0,77,0.00,,---,0.00,VWS V14.01,2013-04-22 10:26:00,
2013-04-22 06:31:00,39.4,32.8,30.32,NE,39,0.0,0.0,77,0.00,,---,0.00,VWS V14.01,2013-04-22 10:31:00,
2013-04-22 06:36:00,39.4,32.8,30.32,NE,56,0.0,0.0,77,0.00,,---,0.00,VWS V14.01,2013-04-22 10:36:00,
2013-04-22 06:41:00,39.4,32.8,30.32,NE,48,0.0,0.0,77,0.00,,---,0.00,VWS V14.01,2013-04-22 10:41:00,
2013-04-22 06:46:00,39.2,32.3,30.32,NE,51,0.0,0.0,76,0.00,,---,0.00,VWS V14.01,2013-04-22 10:46:00,
2013-04-22 06:51:00,39.2,32.3,30.32,ENE,77,0.0,0.0,76,0.00,,---,0.00,VWS V14.01,2013-04-22 10:51:00,
2013-04-22 06:56:00,39.2,32.3,30.32,ENE,58,0.0,0.0,76,0.00,,---,0.00,VWS V14.01,2013-04-22 10:56:00,
2013-04-22 07:01:00,39.2,32.3,30.35,ENE,60,0.0,0.0,76,0.00,,---,0.00,VWS V14.01,2013-04-22 11:01:00,
2013-04-22 07:06:00,39.0,32.1,30.35,NE,49,0.0,0.0,76,0.00,,---,0.00,VWS V14.01,2013-04-22 11:06:00,
2013-04-22 07:11:00,39.0,32.1,30.35,ENE,75,0.0,0.0,76,0.00,,---,0.00,VWS V14.01,2013-04-22 11:11:00,
2013-04-22 07:16:00,39.2,32.3,30.35,ENE,69,0.0,0.0,76,0.00,,---,0.00,VWS V14.01,2013-04-22 11:16:00,
2013-04-22 07:21:00,39.2,32.3,30.35,ENE,63,0.0,0.0,76,0.00,,---,0.00,VWS V14.01,2013-04-22 11:21:00,
2013-04-22 07:26:00,39.2,32.3,30.35,NE,47,0.0,0.0,76,0.00,,---,0.00,VWS V14.01,2013-04-22 11:26:00,
2013-04-22 07:31:00,39.4,32.5,30.35,NNW,345,0.0,0.0,76,0.00,,---,0.00,VWS V14.01,2013-04-22 11:31:00,
2013-04-22 07:36:00,39.6,32.6,30.35,NW,318,0.0,0.0,76,0.00,,---,0.00,VWS V14.01,2013-04-22 11:36:00,
2013-04-22 07:41:00,39.7,32.8,30.35,NNE,24,0.0,0.0,76,0.00,,---,0.00,VWS V14.01,2013-04-22 11:41:00,
2013-04-22 07:46:00,39.9,33.0,30.32,East,89,0.0,0.0,76,0.00,,---,0.00,VWS V14.01,2013-04-22 11:46:00,
2013-04-22 07:51:00,40.3,33.0,30.32,ESE,110,0.0,0.0,75,0.00,,---,0.00,VWS V14.01,2013-04-22 11:51:00,
2013-04-22 07:56:00,40.6,33.3,30.32,ENE,78,0.0,0.0,75,0.00,,---,0.00,VWS V14.01,2013-04-22 11:56:00,
2013-04-22 08:01:00,41.0,33.0,30.35,ESE,113,0.0,0.0,73,0.00,,---,0.00,VWS V14.01,2013-04-22 12:01:00,
2013-04-22 08:06:00,41.2,32.8,30.35,NNE,27,0.0,0.0,72,0.00,,---,0.00,VWS V14.01,2013-04-22 12:06:00,
2013-04-22 08:11:00,41.4,33.0,30.35,ENE,73,0.0,0.0,72,0.00,,---,0.00,VWS V14.01,2013-04-22 12:11:00,
2013-04-22 08:16:00,41.7,33.0,30.35,SE,124,0.0,0.0,71,0.00,,---,0.00,VWS V14.01,2013-04-22 12:16:00,
2013-04-22 08:21:00,42.1,33.0,30.35,East,84,0.0,0.0,70,0.00,,---,0.00,VWS V14.01,2013-04-22 12:21:00,
2013-04-22 08:26:00,42.3,32.8,30.35,ENE,59,0.0,0.0,69,0.00,,---,0.00,VWS V14.01,2013-04-22 12:26:00,
2013-04-22 08:31:00,42.4,32.6,30.35,East,79,0.0,0.0,68,0.00,,---,0.00,VWS V14.01,2013-04-22 12:31:00,
2013-04-22 08:36:00,42.4,32.3,30.35,NE,46,0.0,0.0,67,0.00,,---,0.00,VWS V14.01,2013-04-22 12:36:00,
2013-04-22 08:41:00,42.6,32.1,30.35,NE,52,0.0,0.0,66,0.00,,---,0.00,VWS V14.01,2013-04-22 12:41:00,
2013-04-22 08:46:00,43.0,32.0,30.32,ESE,123,0.0,0.0,65,0.00,,---,0.00,VWS V14.01,2013-04-22 12:46:00,
2013-04-22 08:51:00,43.2,32.2,30.32,East,89,0.0,0.0,65,0.00,,---,0.00,VWS V14.01,2013-04-22 12:51:00,
2013-04-22 08:56:00,43.7,32.3,30.32,NE,50,0.0,0.0,64,0.00,,---,0.00,VWS V14.01,2013-04-22 12:56:00,
2013-04-22 09:01:00,43.7,31.5,30.32,NNE,12,0.0,0.0,62,0.00,,---,0.00,VWS V14.01,2013-04-22 13:01:00,
2013-04-22 09:06:00,43.9,31.3,30.32,East,79,0.0,0.0,61,0.00,,---,0.00,VWS V14.01,2013-04-22 13:06:00,
2013-04-22 09:11:00,44.1,30.7,30.32,East,82,0.0,0.0,59,0.00,,---,0.00,VWS V14.01,2013-04-22 13:11:00,
2013-04-22 09:16:00,44.2,30.8,30.32,East,85,0.0,0.0,59,0.00,,---,0.00,VWS V14.01,2013-04-22 13:16:00,
2013-04-22 09:21:00,44.6,30.8,30.32,East,82,0.0,0.0,58,0.00,,---,0.00,VWS V14.01,2013-04-22 13:21:00,
2013-04-22 09:26:00,45.1,31.3,30.32,NNE,22,0.0,0.0,58,0.00,,---,0.00,VWS V14.01,2013-04-22 13:26:00,
2013-04-22 09:31:00,45.3,30.6,30.32,East,97,0.0,0.0,56,0.00,,---,0.00,VWS V14.01,2013-04-22 13:31:00,
2013-04-22 09:36:00,45.5,29.8,30.32,NNE,14,0.0,0.0,54,0.00,,---,0.00,VWS V14.01,2013-04-22 13:36:00,
2013-04-22 09:41:00,45.7,30.0,30.32,ENE,61,0.0,0.0,54,0.00,,---,0.00,VWS V14.01,2013-04-22 13:41:00,
2013-04-22 09:46:00,46.0,29.9,30.32,East,94,0.0,0.0,53,0.00,,---,0.00,VWS V14.01,2013-04-22 13:46:00,
2013-04-22 09:51:00,46.2,30.0,30.32,ESE,102,0.0,0.0,53,0.00,,---,0.00,VWS V14.01,2013-04-22 13:51:00,
2013-04-22 09:56:00,46.6,30.4,30.32,SE,139,0.0,0.0,53,0.00,,---,0.00,VWS V14.01,2013-04-22 13:56:00,
2013-04-22 10:01:00,46.8,30.5,30.32,East,85,0.0,0.0,53,0.00,,---,0.00,VWS V14.01,2013-04-22 14:01:00,
2013-04-22 10:06:00,47.3,30.6,30.32,North,357,0.0,0.0,52,0.00,,---,0.00,VWS V14.01,2013-04-22 14:06:00,
2013-04-22 10:11:00,47.8,30.6,30.32,East,99,0.0,0.0,51,0.00,,---,0.00,VWS V14.01,2013-04-22 14:11:00,
2013-04-22 10:16:00,48.2,30.5,30.32,East,100,0.0,0.0,50,0.00,,---,0.00,VWS V14.01,2013-04-22 14:16:00,
2013-04-22 10:21:00,48.2,30.0,30.32,NE,38,0.0,0.0,49,0.00,,---,0.00,VWS V14.01,2013-04-22 14:21:00,
2013-04-22 10:26:00,48.6,30.3,30.32,NE,54,0.0,0.0,49,0.00,,---,0.00,VWS V14.01,2013-04-22 14:26:00,
2013-04-22 10:31:00,48.6,29.8,30.32,ENE,73,0.0,0.0,48,0.00,,---,0.00,VWS V14.01,2013-04-22 14:31:00,
2013-04-22 10:36:00,48.7,30.5,30.32,ENE,75,0.0,0.0,49,0.00,,---,0.00,VWS V14.01,2013-04-22 14:36:00,
2013-04-22 10:41:00,48.7,30.5,30.32,ENE,66,0.0,0.0,49,0.00,,---,0.00,VWS V14.01,2013-04-22 14:41:00,
2013-04-22 10:46:00,49.1,30.3,30.32,North,3,0.0,0.0,48,0.00,,---,0.00,VWS V14.01,2013-04-22 14:46:00,
2013-04-22 10:51:00,49.5,30.1,30.32,NE,46,0.0,0.0,47,0.00,,---,0.00,VWS V14.01,2013-04-22 14:51:00,
2013-04-22 10:56:00,49.8,30.4,30.32,ENE,68,0.0,0.0,47,0.00,,---,0.00,VWS V14.01,2013-04-22 14:56:00,
2013-04-22 11:01:00,49.8,29.9,30.32,NW,325,0.0,0.0,46,0.00,,---,0.00,VWS V14.01,2013-04-22 15:01:00,
2013-04-22 11:06:00,50.2,29.1,30.32,NE,54,0.0,0.0,44,0.00,,---,0.00,VWS V14.01,2013-04-22 15:06:00,
2013-04-22 11:11:00,50.5,30.0,30.32,North,8,0.0,0.0,45,0.00,,---,0.00,VWS V14.01,2013-04-22 15:11:00,
2013-04-22 11:16:00,50.9,29.2,30.32,East,101,0.0,0.0,43,0.00,,---,0.00,VWS V14.01,2013-04-22 15:16:00,
2013-04-22 11:21:00,51.3,30.1,30.29,ESE,109,0.0,0.0,44,0.00,,---,0.00,VWS V14.01,2013-04-22 15:21:00,
2013-04-22 11:26:00,51.3,29.0,30.29,NE,50,0.0,0.0,42,0.00,,---,0.00,VWS V14.01,2013-04-22 15:26:00,
2013-04-22 11:31:00,51.4,29.7,30.29,ENE,64,0.0,0.0,43,0.00,,---,0.00,VWS V14.01,2013-04-22 15:31:00,
2013-04-22 11:36:00,51.6,28.7,30.29,NNE,13,0.0,0.0,41,0.00,,---,0.00,VWS V14.01,2013-04-22 15:36:00,
2013-04-22 11:41:00,52.2,28.6,30.29,East,85,0.0,0.0,40,0.00,,---,0.00,VWS V14.01,2013-04-22 15:41:00,
2013-04-22 11:46:00,52.7,29.1,30.29,NNE,19,0.0,0.0,40,0.00,,---,0.00,VWS V14.01,2013-04-22 15:46:00,
2013-04-22 11:51:00,52.7,28.5,30.29,East,80,0.0,0.0,39,0.00,,---,0.00,VWS V14.01,2013-04-22 15:51:00,
2013-04-22 11:56:00,53.1,28.8,30.29,East,93,0.0,0.0,39,0.00,,---,0.00,VWS V14.01,2013-04-22 15:56:00,
2013-04-22 12:01:00,53.2,29.6,30.29,ENE,63,0.0,0.0,40,0.00,,---,0.00,VWS V14.01,2013-04-22 16:01:00,
2013-04-22 12:06:00,54.0,29.6,30.27,NNE,20,0.0,0.0,39,0.00,,---,0.00,VWS V14.01,2013-04-22 16:06:00,
2013-04-22 12:11:00,54.1,29.1,30.27,NNW,343,0.0,0.0,38,0.00,,---,0.00,VWS V14.01,2013-04-22 16:11:00,
2013-04-22 12:16:00,54.5,29.4,30.27,ENE,72,0.0,0.0,38,0.00,,---,0.00,VWS V14.01,2013-04-22 16:16:00,
2013-04-22 12:21:00,54.1,28.5,30.27,ESE,121,0.0,0.0,37,0.00,,---,0.00,VWS V14.01,2013-04-22 16:21:00,
2013-04-22 12:26:00,54.5,29.4,30.27,NNE,20,0.0,0.0,38,0.00,,---,0.00,VWS V14.01,2013-04-22 16:26:00,
2013-04-22 12:31:00,55.6,29.7,30.27,North,5,0.0,0.0,37,0.00,,---,0.00,VWS V14.01,2013-04-22 16:31:00,
2013-04-22 12:36:00,55.9,30.1,30.27,East,98,0.0,0.0,37,0.00,,---,0.00,VWS V14.01,2013-04-22 16:36:00,
2013-04-22 12:41:00,55.9,30.1,30.27,ESE,108,0.0,0.0,37,0.00,,---,0.00,VWS V14.01,2013-04-22 16:41:00,
2013-04-22 12:45:00,56.1,30.2,30.27,West,279,0.0,0.0,37,0.00,,---,0.00,VWS V14.01,2013-04-22 16:45:00,
2013-04-22 12:50:00,56.3,29.7,30.27,SE,136,0.0,0.0,36,0.00,,---,0.00,VWS V14.01,2013-04-22 16:50:00,
2013-04-22 12:55:00,56.5,29.9,30.27,East,92,0.0,0.0,36,0.00,,---,0.00,VWS V14.01,2013-04-22 16:55:00,
2013-04-22 13:00:00,56.1,28.9,30.27,ESE,102,0.0,0.0,35,0.00,,---,0.00,VWS V14.01,2013-04-22 17:00:00,
2013-04-22 13:05:00,56.5,29.2,30.24,East,85,0.0,0.0,35,0.00,,---,0.00,VWS V14.01,2013-04-22 17:05:00,
2013-04-22 13:10:00,57.0,29.7,30.24,East,93,0.0,0.0,35,0.00,,---,0.00,VWS V14.01,2013-04-22 17:10:00,
2013-04-22 13:15:00,57.2,29.8,30.24,North,9,0.0,0.0,35,0.00,,---,0.00,VWS V14.01,2013-04-22 17:15:00,
2013-04-22 13:20:00,57.6,30.1,30.24,ENE,61,0.0,0.0,35,0.00,,---,0.00,VWS V14.01,2013-04-22 17:20:00,
2013-04-22 13:25:00,57.2,29.1,30.24,East,91,0.0,0.0,34,0.00,,---,0.00,VWS V14.01,2013-04-22 17:25:00,
2013-04-22 13:30:00,57.0,28.2,30.24,ENE,57,0.0,0.0,33,0.00,,---,0.00,VWS V14.01,2013-04-22 17:30:00,
2013-04-22 13:35:00,57.2,29.8,30.24,ENE,78,0.0,0.0,35,0.00,,---,0.00,VWS V14.01,2013-04-22 17:35:00,
2013-04-22 13:40:00,57.6,29.4,30.24,East,80,0.0,0.0,34,0.00,,---,0.00,VWS V14.01,2013-04-22 17:40:00,
2013-04-22 13:45:00,57.6,29.4,30.24,ENE,74,0.0,0.0,34,0.00,,---,0.00,VWS V14.01,2013-04-22 17:45:00,
2013-04-22 13:50:00,57.4,30.0,30.24,North,0,0.0,0.0,35,0.00,,---,0.00,VWS V14.01,2013-04-22 17:50:00,
2013-04-22 13:55:00,57.6,29.4,30.24,North,7,0.0,0.0,34,0.00,,---,0.00,VWS V14.01,2013-04-22 17:55:00,
2013-04-22 14:00:00,58.1,30.6,30.24,NNE,18,0.0,0.0,35,0.00,,---,0.00,VWS V14.01,2013-04-22 18:00:00,
2013-04-22 14:05:00,58.5,29.5,30.24,East,86,0.0,0.0,33,0.00,,---,0.00,VWS V14.01,2013-04-22 18:05:00,
2013-04-22 14:10:00,58.8,29.8,30.24,ESE,119,0.0,0.0,33,0.00,,---,0.00,VWS V14.01,2013-04-22 18:10:00,
2013-04-22 14:15:00,59.2,30.9,30.24,SE,135,0.0,0.0,34,0.00,,---,0.00,VWS V14.01,2013-04-22 18:15:00,
2013-04-22 14:20:00,59.0,29.2,30.21,NNE,32,0.0,0.0,32,0.00,,---,0.00,VWS V14.01,2013-04-22 18:20:00,
2013-04-22 14:25:00,59.5,31.2,30.21,SSE,160,0.0,0.0,34,0.00,,---,0.00,VWS V14.01,2013-04-22 18:25:00,
2013-04-22 14:30:00,59.7,29.8,30.21,ESE,106,0.0,0.0,32,0.00,,---,0.00,VWS V14.01,2013-04-22 18:30:00,
2013-04-22 14:35:00,59.9,31.5,30.21,WSW,245,0.0,0.0,34,0.00,,---,0.00,VWS V14.01,2013-04-22 18:35:00,
2013-04-22 14:40:00,59.9,30.0,30.21,SE,142,0.0,0.0,32,0.00,,---,0.00,VWS V14.01,2013-04-22 18:40:00,
2013-04-22 14:45:00,60.3,29.5,30.21,NW,305,0.0,0.0,31,0.00,,---,0.00,VWS V14.01,2013-04-22 18:45:00,
2013-04-22 14:50:00,60.3,28.7,30.21,East,97,0.0,0.0,30,0.00,,---,0.00,VWS V14.01,2013-04-22 18:50:00,
2013-04-22 14:55:00,60.1,28.6,30.21,ESE,120,0.0,0.0,30,0.00,,---,0.00,VWS V14.01,2013-04-22 18:55:00,
2013-04-22 15:00:00,60.3,29.5,30.21,NNW,344,0.0,0.0,31,0.00,,---,0.00,VWS V14.01,2013-04-22 19:00:00,
2013-04-22 15:05:00,60.6,29.8,30.21,West,264,0.0,0.0,31,0.00,,---,0.00,VWS V14.01,2013-04-22 19:05:00,
2013-04-22 15:10:00,60.6,29.0,30.21,ENE,69,0.0,0.0,30,0.00,,---,0.00,VWS V14.01,2013-04-22 19:10:00,
2013-04-22 15:15:00,59.9,26.7,30.21,ENE,75,0.0,0.0,28,0.00,,---,0.00,VWS V14.01,2013-04-22 19:15:00,
2013-04-22 15:20:00,60.1,27.7,30.18,ENE,73,0.0,0.0,29,0.00,,---,0.00,VWS V14.01,2013-04-22 19:20:00,
2013-04-22 15:25:00,59.9,26.7,30.18,East,92,0.0,0.0,28,0.00,,---,0.00,VWS V14.01,2013-04-22 19:25:00,
2013-04-22 15:30:00,60.1,27.7,30.18,NE,51,0.0,0.0,29,0.00,,---,0.00,VWS V14.01,2013-04-22 19:30:00,
2013-04-22 15:35:00,60.1,26.9,30.18,East,99,0.0,0.0,28,0.00,,---,0.00,VWS V14.01,2013-04-22 19:35:00,
2013-04-22 15:40:00,60.1,26.9,30.18,East,91,0.0,0.0,28,0.00,,---,0.00,VWS V14.01,2013-04-22 19:40:00,
2013-04-22 15:45:00,60.3,27.0,30.18,ESE,116,0.0,0.0,28,0.00,,---,0.00,VWS V14.01,2013-04-22 19:45:00,
2013-04-22 15:50:00,60.3,26.2,30.18,ENE,78,0.0,0.0,27,0.00,,---,0.00,VWS V14.01,2013-04-22 19:50:00,
2013-04-22 15:55:00,60.1,26.0,30.18,East,101,0.0,0.0,27,0.00,,---,0.00,VWS V14.01,2013-04-22 19:55:00,
2013-04-22 16:00:00,60.3,27.0,30.18,NNE,16,0.0,0.0,28,0.00,,---,0.00,VWS V14.01,2013-04-22 20:00:00,
2013-04-22 16:05:00,60.4,27.2,30.18,East,98,0.0,0.0,28,0.00,,---,0.00,VWS V14.01,2013-04-22 20:05:00,
2013-04-22 16:10:00,60.4,26.3,30.18,East,95,0.0,0.0,27,0.00,,---,0.00,VWS V14.01,2013-04-22 20:10:00,
2013-04-22 16:15:00,60.6,26.5,30.18,East,88,0.0,0.0,27,0.00,,---,0.00,VWS V14.01,2013-04-22 20:15:00,
2013-04-22 16:20:00,60.8,26.6,30.18,SE,128,0.0,0.0,27,0.00,,---,0.00,VWS V14.01,2013-04-22 20:20:00,
2013-04-22 16:25:00,61.0,26.8,30.18,ESE,110,0.0,0.0,27,0.00,,---,0.00,VWS V14.01,2013-04-22 20:25:00,
2013-04-22 16:30:00,60.8,27.5,30.18,NNE,17,0.0,0.0,28,0.00,,---,0.00,VWS V14.01,2013-04-22 20:30:00,
2013-04-22 16:35:00,60.8,27.5,30.18,East,100,0.0,0.0,28,0.00,,---,0.00,VWS V14.01,2013-04-22 20:35:00,
2013-04-22 16:40:00,60.6,27.4,30.18,ESE,111,0.0,0.0,28,0.00,,---,0.00,VWS V14.01,2013-04-22 20:40:00,
2013-04-22 16:45:00,60.6,26.5,30.18,ENE,60,0.0,0.0,27,0.00,,---,0.00,VWS V14.01,2013-04-22 20:45:00,
2013-04-22 16:50:00,60.4,26.3,30.18,East,86,0.0,0.0,27,0.00,,---,0.00,VWS V14.01,2013-04-22 20:50:00,
2013-04-22 16:55:00,60.4,25.4,30.18,East,84,0.0,0.0,26,0.00,,---,0.00,VWS V14.01,2013-04-22 20:55:00,
2013-04-22 17:00:00,60.4,25.4,30.18,East,99,0.0,0.0,26,0.00,,---,0.00,VWS V14.01,2013-04-22 21:00:00,
2013-04-22 17:05:00,60.4,25.4,30.18,ESE,120,0.0,0.0,26,0.00,,---,0.00,VWS V14.01,2013-04-22 21:05:00,
2013-04-22 17:10:00,60.4,25.4,30.18,SSE,147,0.0,0.0,26,0.00,,---,0.00,VWS V14.01,2013-04-22 21:10:00,
2013-04-22 17:15:00,60.4,26.3,30.18,East,94,0.0,0.0,27,0.00,,---,0.00,VWS V14.01,2013-04-22 21:15:00,
2013-04-22 17:20:00,60.4,25.4,30.18,East,98,0.0,0.0,26,0.00,,---,0.00,VWS V14.01,2013-04-22 21:20:00,
2013-04-22 17:25:00,60.3,26.2,30.18,SE,128,0.0,0.0,27,0.00,,---,0.00,VWS V14.01,2013-04-22 21:25:00,
2013-04-22 17:30:00,60.4,26.3,30.18,East,91,0.0,0.0,27,0.00,,---,0.00,VWS V14.01,2013-04-22 21:30:00,
2013-04-22 17:35:00,60.6,27.4,30.15,ENE,57,0.0,0.0,28,0.00,,---,0.00,VWS V14.01,2013-04-22 21:35:00,
2013-04-22 17:40:00,60.4,27.2,30.15,NNE,31,0.0,0.0,28,0.00,,---,0.00,VWS V14.01,2013-04-22 21:40:00,
2013-04-22 17:45:00,60.3,27.0,30.15,ESE,118,0.0,0.0,28,0.00,,---,0.00,VWS V14.01,2013-04-22 21:45:00,
2013-04-22 17:50:00,60.3,27.0,30.15,NNE,14,0.0,0.0,28,0.00,,---,0.00,VWS V14.01,2013-04-22 21:50:00,
2013-04-22 17:55:00,60.1,26.0,30.15,NE,38,0.0,0.0,27,0.00,,---,0.00,VWS V14.01,2013-04-22 21:55:00,
2013-04-22 18:00:00,60.1,26.0,30.15,NNE,19,0.0,0.0,27,0.00,,---,0.00,VWS V14.01,2013-04-22 22:00:00,
2013-04-22 18:05:00,60.1,26.0,30.15,NNE,28,0.0,0.0,27,0.00,,---,0.00,VWS V14.01,2013-04-22 22:05:00,
2013-04-22 18:10:00,60.1,26.0,30.15,ENE,70,0.0,0.0,27,0.00,,---,0.00,VWS V14.01,2013-04-22 22:10:00,
2013-04-22 18:15:00,60.1,26.9,30.15,North,6,0.0,0.0,28,0.00,,---,0.00,VWS V14.01,2013-04-22 22:15:00,
2013-04-22 18:20:00,59.9,27.6,30.15,NE,42,0.0,0.0,29,0.00,,---,0.00,VWS V14.01,2013-04-22 22:20:00,
2013-04-22 18:25:00,59.7,26.6,30.15,ENE,64,0.0,0.0,28,0.00,,---,0.00,VWS V14.01,2013-04-22 22:25:00,
2013-04-22 18:30:00,59.5,26.4,30.15,East,91,0.0,0.0,28,0.00,,---,0.00,VWS V14.01,2013-04-22 22:30:00,
2013-04-22 18:35:00,59.5,26.4,30.15,East,80,0.0,0.0,28,0.00,,---,0.00,VWS V14.01,2013-04-22 22:35:00,
2013-04-22 18:40:00,59.5,26.4,30.15,East,91,0.0,0.0,28,0.00,,---,0.00,VWS V14.01,2013-04-22 22:40:00,
2013-04-22 18:45:00,59.4,27.9,30.15,ENE,60,0.0,0.0,30,0.00,,---,0.00,VWS V14.01,2013-04-22 22:45:00,
2013-04-22 18:50:00,59.2,27.8,30.15,ENE,72,0.0,0.0,30,0.00,,---,0.00,VWS V14.01,2013-04-22 22:50:00,
2013-04-22 18:55:00,59.0,27.6,30.15,ENE,57,0.0,0.0,30,0.00,,---,0.00,VWS V14.01,2013-04-22 22:55:00,
2013-04-22 19:00:00,59.0,26.8,30.15,NNE,27,0.0,0.0,29,0.00,,---,0.00,VWS V14.01,2013-04-22 23:00:00,
2013-04-22 19:05:00,58.8,26.6,30.15,NE,47,0.0,0.0,29,0.00,,---,0.00,VWS V14.01,2013-04-22 23:05:00,
2013-04-22 19:10:00,58.6,27.3,30.15,NE,47,0.0,0.0,30,0.00,,---,0.00,VWS V14.01,2013-04-22 23:10:00,
2013-04-22 19:15:00,58.5,27.2,30.15,ESE,109,0.0,0.0,30,0.00,,---,0.00,VWS V14.01,2013-04-22 23:15:00,
2013-04-22 19:20:00,58.5,27.2,30.15,NNE,25,0.0,0.0,30,0.00,,---,0.00,VWS V14.01,2013-04-22 23:20:00,
2013-04-22 19:25:00,58.1,26.9,30.15,ENE,74,0.0,0.0,30,0.00,,---,0.00,VWS V14.01,2013-04-22 23:25:00,
2013-04-22 19:30:00,58.1,26.9,30.15,ENE,75,0.0,0.0,30,0.00,,---,0.00,VWS V14.01,2013-04-22 23:30:00,
2013-04-22 19:35:00,57.9,26.7,30.15,ENE,69,0.0,0.0,30,0.00,,---,0.00,VWS V14.01,2013-04-22 23:35:00,
2013-04-22 19:40:00,57.6,27.2,30.15,ENE,76,0.0,0.0,31,0.00,,---,0.00,VWS V14.01,2013-04-22 23:40:00,
2013-04-22 19:45:00,57.6,27.2,30.15,ENE,68,0.0,0.0,31,0.00,,---,0.00,VWS V14.01,2013-04-22 23:45:00,
2013-04-22 19:50:00,57.4,27.0,30.15,ENE,63,0.0,0.0,31,0.00,,---,0.00,VWS V14.01,2013-04-22 23:50:00,
2013-04-22 19:55:00,57.2,27.6,30.15,ENE,69,0.0,0.0,32,0.00,,---,0.00,VWS V14.01,2013-04-22 23:55:00,
2013-04-22 20:00:00,57.0,28.2,30.15,NE,45,0.0,0.0,33,0.00,,---,0.00,VWS V14.01,2013-04-23 00:00:00,
2013-04-22 20:05:00,56.8,28.8,30.15,East,97,0.0,0.0,34,0.00,,---,0.00,VWS V14.01,2013-04-23 00:05:00,
2013-04-22 20:10:00,56.7,29.3,30.15,East,93,0.0,0.0,35,0.00,,---,0.00,VWS V14.01,2013-04-23 00:10:00,
2013-04-22 20:15:00,56.3,29.0,30.15,East,89,0.0,0.0,35,0.00,,---,0.00,VWS V14.01,2013-04-23 00:15:00,
2013-04-22 20:20:00,56.1,28.9,30.18,East,79,0.0,0.0,35,0.00,,---,0.00,VWS V14.01,2013-04-23 00:20:00,
2013-04-22 20:25:00,55.9,28.7,30.18,ENE,76,0.0,0.0,35,0.00,,---,0.00,VWS V14.01,2013-04-23 00:25:00,
2013-04-22 20:30:00,55.8,29.2,30.18,ENE,74,0.0,0.0,36,0.00,,---,0.00,VWS V14.01,2013-04-23 00:30:00,
2013-04-22 20:35:00,55.4,28.9,30.18,ENE,74,0.0,0.0,36,0.00,,---,0.00,VWS V14.01,2013-04-23 00:35:00,
2013-04-22 20:40:00,55.2,29.4,30.18,ENE,73,0.0,0.0,37,0.00,,---,0.00,VWS V14.01,2013-04-23 00:40:00,
2013-04-22 20:45:00,54.9,29.1,30.18,ENE,68,0.0,0.0,37,0.00,,---,0.00,VWS V14.01,2013-04-23 00:45:00,
2013-04-22 20:50:00,54.7,28.9,30.18,ENE,64,0.0,0.0,37,0.00,,---,0.00,VWS V14.01,2013-04-23 00:50:00,
2013-04-22 20:55:00,54.5,28.8,30.18,ENE,65,0.0,0.0,37,0.00,,---,0.00,VWS V14.01,2013-04-23 00:55:00,
2013-04-22 21:00:00,54.5,28.8,30.18,ENE,65,0.0,0.0,37,0.00,,---,0.00,VWS V14.01,2013-04-23 01:00:00,
2013-04-22 21:05:00,54.3,29.3,30.18,East,79,0.0,0.0,38,0.00,,---,0.00,VWS V14.01,2013-04-23 01:05:00,
2013-04-22 21:10:00,54.1,29.1,30.18,ENE,73,0.0,0.0,38,0.00,,---,0.00,VWS V14.01,2013-04-23 01:10:00,
2013-04-22 21:15:00,54.0,29.0,30.18,ENE,71,0.0,0.0,38,0.00,,---,0.00,VWS V14.01,2013-04-23 01:15:00,
2013-04-22 21:20:00,53.8,29.4,30.18,ENE,70,0.0,0.0,39,0.00,,---,0.00,VWS V14.01,2013-04-23 01:20:00,
2013-04-22 21:25:00,53.6,29.9,30.18,ENE,69,0.0,0.0,40,0.00,,---,0.00,VWS V14.01,2013-04-23 01:25:00,
2013-04-22 21:30:00,53.2,30.2,30.18,ENE,66,0.0,0.0,41,0.00,,---,0.00,VWS V14.01,2013-04-23 01:30:00,
2013-04-22 21:35:00,53.2,30.2,30.18,ENE,69,0.0,0.0,41,0.00,,---,0.00,VWS V14.01,2013-04-23 01:35:00,
2013-04-22 21:40:00,53.2,30.8,30.18,ENE,71,0.0,0.0,42,0.00,,---,0.00,VWS V14.01,2013-04-23 01:40:00,
2013-04-22 21:45:00,53.1,30.6,30.18,ENE,66,0.0,0.0,42,0.00,,---,0.00,VWS V14.01,2013-04-23 01:45:00,
2013-04-22 21:50:00,52.9,31.0,30.18,ENE,61,0.0,0.0,43,0.00,,---,0.00,VWS V14.01,2013-04-23 01:50:00,
2013-04-22 21:55:00,52.7,31.4,30.18,ENE,62,0.0,0.0,44,0.00,,---,0.00,VWS V14.01,2013-04-23 01:55:00,
2013-04-22 22:00:00,52.5,31.8,30.18,ENE,61,0.0,0.0,45,0.00,,---,0.00,VWS V14.01,2013-04-23 02:00:00,
2013-04-22 22:05:00,52.5,31.2,30.18,ENE,71,0.0,0.0,44,0.00,,---,0.00,VWS V14.01,2013-04-23 02:05:00,
2013-04-22 22:10:00,52.7,32.0,30.18,ENE,71,0.0,0.0,45,0.00,,---,0.00,VWS V14.01,2013-04-23 02:10:00,
2013-04-22 22:15:00,52.7,32.0,30.18,ENE,70,0.0,0.0,45,0.00,,---,0.00,VWS V14.01,2013-04-23 02:15:00,
2013-04-22 22:20:00,52.7,32.0,30.18,ENE,69,0.0,0.0,45,0.00,,---,0.00,VWS V14.01,2013-04-23 02:20:00,
2013-04-22 22:25:00,52.7,32.5,30.18,ENE,68,0.0,0.0,46,0.00,,---,0.00,VWS V14.01,2013-04-23 02:25:00,
2013-04-22 22:30:00,52.5,32.3,30.18,ENE,68,0.0,0.0,46,0.00,,---,0.00,VWS V14.01,2013-04-23 02:30:00,
2013-04-22 22:35:00,52.5,32.3,30.18,ENE,68,0.0,0.0,46,0.00,,---,0.00,VWS V14.01,2013-04-23 02:35:00,
2013-04-22 22:40:00,52.5,32.3,30.18,ENE,69,0.0,0.0,46,0.00,,---,0.00,VWS V14.01,2013-04-23 02:40:00,
2013-04-22 22:45:00,52.5,32.9,30.18,ENE,69,0.0,0.0,47,0.00,,---,0.00,VWS V14.01,2013-04-23 02:45:00,
2013-04-22 22:50:00,52.7,33.0,30.18,ENE,69,0.0,0.0,47,0.00,,---,0.00,VWS V14.01,2013-04-23 02:50:00,
2013-04-22 22:55:00,52.7,33.0,30.18,ENE,68,0.0,0.0,47,0.00,,---,0.00,VWS V14.01,2013-04-23 02:55:00,
2013-04-22 23:00:00,52.9,33.2,30.18,East,81,0.0,0.0,47,0.00,,---,0.00,VWS V14.01,2013-04-23 03:00:00,
2013-04-22 23:05:00,53.1,33.9,30.18,East,80,0.0,0.0,48,0.00,,---,0.00,VWS V14.01,2013-04-23 03:05:00,
2013-04-22 23:10:00,53.1,33.9,30.18,ENE,58,0.0,0.0,48,0.00,,---,0.00,VWS V14.01,2013-04-23 03:10:00,
2013-04-22 23:15:00,53.1,33.9,30.18,North,7,0.0,0.0,48,0.00,,---,0.00,VWS V14.01,2013-04-23 03:15:00,
2013-04-22 23:20:00,53.1,34.4,30.18,ENE,59,0.0,0.0,49,0.00,,---,0.00,VWS V14.01,2013-04-23 03:20:00,
2013-04-22 23:25:00,52.9,34.8,30.18,SE,133,0.0,0.0,50,0.00,,---,0.00,VWS V14.01,2013-04-23 03:25:00,
2013-04-22 23:30:00,53.1,34.9,30.18,NE,52,0.0,0.0,50,0.00,,---,0.00,VWS V14.01,2013-04-23 03:30:00,
2013-04-22 23:35:00,53.1,35.4,30.18,North,353,0.0,0.0,51,0.00,,---,0.00,VWS V14.01,2013-04-23 03:35:00,
2013-04-22 23:40:00,53.1,35.4,30.18,East,91,0.0,0.0,51,0.00,,---,0.00,VWS V14.01,2013-04-23 03:40:00,
2013-04-22 23:45:00,53.1,35.4,30.18,East,84,0.0,0.0,51,0.00,,---,0.00,VWS V14.01,2013-04-23 03:45:00,
2013-04-22 23:50:00,53.1,35.4,30.18,SSE,162,0.0,0.0,51,0.00,,---,0.00,VWS V14.01,2013-04-23 03:50:00,
2013-04-22 23:55:00,53.1,35.4,30.18,ENE,60,0.0,0.0,51,0.00,,---,0.00,VWS V14.01,2013-04-23 03:55:00,